Location: Sungai Laei
(2.6000°N, 113.7167°E)
Time: 12:30:45
(UTC+00:00)

Meteor 1-31 Rocket - Visible Passes

Search period start: 26 September 2022 00:00
Search period end: 06 October 2022 00:00
Orbit: 515 x 542 km, 97.7° (Epoch: 25 September)

Date Brightness Start Highest point End Pass type
(mag) Time Alt. Az. Time Alt. Az. Time Alt. Az.
27 Sep 2.8 21:50:41 10° N 21:54:27 59° WNW 21:58:16 10° SSW visible
28 Sep 2.8 21:39:42 10° NNE 21:43:31 89° E 21:47:24 10° S visible
29 Sep 3.5 21:28:50 10° NNE 21:32:36 57° ESE 21:36:25 10° S visible
30 Sep 4.4 21:18:06 10° NNE 21:21:41 37° ESE 21:25:17 10° S visible
01 Oct 5.2 21:07:33 10° NE 21:10:45 25° ESE 21:13:59 10° SSE visible
02 Oct 5.9 20:57:14 10° ENE 20:59:49 17° ESE 21:02:25 10° SE visible
03 Oct 6.3 20:47:27 10° E 20:48:52 12° ESE 20:50:19 10° ESE visible
